sat.trackr.live / text

‹ back to catalog

STARLINK-11702 [DTC]

NORAD 63752 · 2025-089B

PAYLOAD ACTIVE UNKNOWN

§ Identity

Operator
Country
US
Launch date
2025-04-29
Launch site
AFETR
Launch vehicle
Mass (kg)
RCS (m²)

Purposes: comms

External: N2YO · Heavens-Above · Gunter

§ Orbital elements

Epoch: 2026-05-24T20:18:54.843840Z

Period
91.67 min
Inclination
43.0014°
Eccentricity
0.0000933
Mean motion
15.70898820 rev/d
Perigee alt
355.7 km
Apogee alt
357.0 km
Semi-major
6,734.5 km
B*
1.7858e-3
RAAN
193.1392°
Arg perigee
42.8112°
Mean anomaly
317.2828°
Rev number
6,211

§ Raw data

STARLINK-11702 [DTC]1 63752U 25089B   26144.84646810  .00235900  00000+0  17858-2 0  99902 63752  43.0014 193.1392 0000933  42.8112 317.2828 15.70898820 62117

JSON: /api/v1/satellites/63752 · /tle

For live sub-satellite position, see the globe view (requires WebGL).

§ Visibility from observer

Set your observer location to see the next 7 days of passes ≥ 10°. The values pass through the URL so the page stays shareable.

No JS? Fill the form by hand. The geolocation button needs JavaScript.